Home   Weather   Oroville   Past weeks
Flag for USA

Past Weather in Oroville, Washington, USA — Yesterday and Last 2 Weeks

Now
60 °F

Cool.


Feels Like: 60 °F
Forecast: 77 / 51 °F
Wind: 1 mph from Southeast

Location: Osoyoos

Current Time: Jul 18, 2019 at 4:36:22 am

Latest Report: Jul 18, 2019 at 4:00 am


Visibility: N/A

Pressure: 29.72 "Hg

Humidity: 73%

Dew Point: 52 °F

Location of OrovilleLocation

Past Weather in Oroville — Graph

°F

Oroville Temperature Yesterday

Maximum temperature yesterday: 78 °F (at 5:00 pm)
Minimum temperature yesterday: 64 °F (at 5:00 am)
Average temperature yesterday: 70 °F

High & Low Weather Summary for the Past Weeks

 TemperatureHumidityPressure
High87 °F (Jul 13, 4:00 pm)98% (Jul 6, 4:00 am)30.08 "Hg (Jul 6, 4:00 am)
Low55 °F (Jul 9, 5:00 am)22% (Jul 11, 3:00 pm)29.67 "Hg (Jul 17, 8:00 pm)
Average72 °F51%29.91 "Hg
* Reported Jul 3 3:00 am — Jul 18 3:00 am, Oroville. Weather by CustomWeather, © 2019

Note: Actual official high and low records may vary slightly from our data, if they occured in-between our weather recording intervals... More about our weather records

Advertising

Oroville Weather History for the Previous 24 Hours

Scroll right to see more
 ConditionsComfort  
Time TempWeatherWind HumidityBarometerVisibility
3:00 am
Thu, Jul 18
63 °FMild.1 mph76%29.71 "HgN/A
2:00 am64 °FMild.1 mph80%29.71 "HgN/A
1:00 am65 °FMild.No wind76%29.70 "HgN/A
12:00 am65 °FMild.1 mph75%29.69 "HgN/A
11:00 pm
Wed, Jul 17
69 °FMild.3 mph68%29.68 "HgN/A
10:00 pm68 °FMild.3 mph67%29.68 "HgN/A
9:00 pm70 °FMild.7 mph63%29.67 "HgN/A
8:00 pm69 °FMild.3 mph63%29.67 "HgN/A
7:00 pm71 °FMild.7 mph59%29.68 "HgN/A
6:00 pm77 °FWarm.3 mph42%29.69 "HgN/A
5:00 pm78 °FPleasantly warm.10 mph36%29.70 "HgN/A
4:00 pm77 °FPleasantly warm.10 mph37%29.72 "HgN/A
3:00 pm77 °FPleasantly warm.9 mph36%29.72 "HgN/A
2:00 pm74 °FMild.13 mph41%29.73 "HgN/A
1:00 pm76 °FMild.12 mph39%29.73 "HgN/A
12:00 pm73 °FMild.8 mph45%29.74 "HgN/A
11:00 am73 °FMild.7 mph46%29.75 "HgN/A
10:00 am71 °FMild.5 mph49%29.76 "HgN/A
9:00 am67 °FMild.6 mph61%29.77 "HgN/A
8:00 am67 °FMild.7 mph57%29.75 "HgN/A
7:00 am66 °FMild.1 mph62%29.75 "HgN/A
6:00 am64 °FMild.2 mph64%29.75 "HgN/A
5:00 am64 °FMild.2 mph69%29.76 "HgN/A
4:00 am65 °FMild.No wind71%29.76 "HgN/A
Weather by CustomWeather, © 2019

See weather overview